Location: Newark
(49.2191°N, 12.6671°E)
Time: 21:57:44
(UTC+00:00)

Transit 4A - Pass Details

Date: 29 January 2020
Orbit: 872 x 973 km, 66.8° (Epoch: 20 February)

Event Time Altitude Azimuth Distance (km) Brightness Sun altitude
Rises 03:11:46 0° 155° (SSE) 3,540 11.1 -34.7°
Reaches altitude 10° 03:15:38 10° 131° (SE) 2,582 10.6 -34.1°
Maximum altitude 03:18:27 14° 103° (ESE) 2,313 10.6 -33.7°
Drops below altitude 10° 03:21:14 10° 74° (ENE) 2,561 11.0 -33.2°
Sets 03:25:02 0° 50° (NE) 3,491 11.7 -32.6°
